1489676400.18,49923,9.88,73046.5,-9.71,-12.21,-11.93,0,*50
1489676401.42,49924,9.88,73040.3,-9.67,-12.21,-11.89,0,*5B
1489676402.65,49925,9.88,73000.8,-9.71,-12.35,-12.03,0,*59
1489676403.9,49926,9.88,72994.8,-9.71,-12.07,-11.89,0,*5A
1489676405.15,49927,9.88,73000.5,-9.71,-11.77,-11.77,0,*5E
1489676406.39,49928,9.88,72998.5,-9.71,-11.81,-11.81,0,*51
1489676407.65,49929,9.88,73012.3,-9.71,-12.07,-12.07,0,*50
1489676408.9,49930,9.88,72964.3,-9.71,-12.07,-11.93,0,*56
1489676410.16,49931,9.88,72972.3,-9.71,-12.07,-12.07,0,*59
1489676411.39,49932,9.88,72992.0,-9.71,-12.29,-12.35,0,*57
1489676412.63,49933,9.88,73010.8,-9.71,-12.53,-12.39,0,*57
1489676413.85,49934,9.88,73056.5,-9.71,-12.65,-12.39,0,*55
1489676415.08,49935,9.88,73022.0,-9.71,-13.07,-12.35,0,*5D
1489676416.31,49936,9.88,72998.5,-9.71,-12.47,-11.93,0,*54
1489676417.55,49937,9.88,72996.5,-9.71,-12.21,-11.67,0,*5E
1489676418.8,49938,9.88,72994.0,-9.67,-12.15,-11.81,0,*59
1489676420.02,49939,9.88,73016.5,-9.71,-12.03,-11.81,0,*58
1489676421.25,49940,9.88,72998.5,-9.67,-12.21,-12.15,0,*5F
1489676422.48,49941,9.88,72996.8,-9.71,-12.53,-12.47,0,*5B
1489676423.73,49942,9.88,72992.8,-9.71,-12.75,-12.61,0,*58
1489676424.96,49943,9.88,73000.0,-9.71,-12.93,-12.75,0,*54
1489676426.19,49944,9.88,73012.0,-9.71,-13.15,-12.79,0,*50
1489676427.42,49945,9.88,72998.8,-9.71,-13.19,-12.53,0,*55
1489676428.65,49946,9.88,73000.8,-9.71,-12.75,-12.29,0,*50
1489676429.91,49947,9.88,73004.8,-9.71,-12.15,-11.89,0,*5E
1489676431.17,49948,9.88,72996.8,-9.71,-12.15,-11.93,0,*5A
1489676432.4,49949,9.88,73002.5,-9.71,-12.21,-12.15,0,*51
1489676433.61,49950,9.88,72964.0,-9.71,-12.29,-12.21,0,*56
1489676434.84,49951,9.88,72964.8,-9.71,-12.75,-12.47,0,*5E
1489676436.07,49952,9.88,72970.8,-9.75,-12.43,-12.35,0,*59
1489676437.32,49953,9.88,72972.3,-9.73,-12.25,-12.07,0,*5F
1489676438.61,49954,9.88,72970.3,-9.73,-12.11,-11.97,0,*55
1489676439.86,49955,9.88,72946.3,-9.71,-12.15,-12.07,0,*58
1489676441.12,49956,9.88,72940.3,-9.71,-11.93,-11.93,0,*58
1489676442.4,49957,9.88,72940.0,-9.73,-11.97,-12.07,0,*51
1489676443.61,49958,9.88,72960.3,-9.75,-12.25,-12.25,0,*52
1489676444.89,49959,9.88,72950.8,-9.73,-12.57,-12.83,0,*5C
1489676446.11,49960,9.88,72960.3,-9.73,-13.07,-13.07,0,*5F
1489676447.34,49961,9.88,72972.3,-9.73,-13.11,-13.11,0,*5E
1489676448.56,49962,9.88,72964.3,-9.73,-13.11,-13.07,0,*5A
1489676449.79,49963,9.88,72956.3,-9.73,-13.11,-12.97,0,*53
1489676451.02,49964,9.88,72968.8,-9.73,-13.19,-13.07,0,*54
1489676452.25,49965,9.88,72964.5,-9.73,-13.19,-12.97,0,*5D
1489676453.5,49966,9.88,72978.5,-9.73,-13.07,-12.65,0,*5C
1489676454.78,49967,9.88,72982.3,-9.73,-12.83,-12.57,0,*51
1489676456.06,49968,9.88,72986.8,-9.73,-12.57,-12.35,0,*53
1489676457.29,49969,9.88,72978.3,-9.71,-12.35,-12.21,0,*51
1489676458.5,49970,9.88,72990.3,-9.67,-12.29,-12.21,0,*53
1489676459.71,49971,9.88,72990.3,-9.71,-12.29,-12.21,0,*55
1489676460.92,49972,9.88,73004.5,-9.67,-12.29,-12.21,0,*51
1489676462.17,49973,9.88,72958.5,-9.71,-12.61,-12.35,0,*5E
1489676463.4,49974,9.88,72952.0,-9.71,-12.35,-12.03,0,*5D
1489676464.63,49975,9.88,72968.0,-9.71,-12.21,-12.07,0,*5D
1489676465.87,49976,9.88,72950.5,-9.71,-12.21,-12.07,0,*5E
1489676467.09,49977,9.88,72994.0,-9.71,-12.61,-12.39,0,*56
1489676468.34,49978,9.88,72978.8,-9.71,-12.79,-12.61,0,*5D
1489676469.55,49979,9.88,72984.3,-9.71,-12.89,-12.47,0,*57
1489676470.75,49980,9.88,72986.3,-9.67,-12.89,-12.47,0,*56
1489676471.95,49981,9.88,72986.5,-9.71,-12.47,-12.29,0,*5A
1489676473.18,49982,9.88,72980.5,-9.71,-12.47,-12.35,0,*54
1489676474.43,49983,9.88,72962.5,-9.71,-13.01,-12.65,0,*53
1489676475.68,49984,9.88,72926.3,-9.67,-12.61,-12.61,0,*50
1489676476.93,49985,9.88,72982.3,-9.67,-12.79,-12.79,0,*51
1489676478.15,49986,9.88,72986.5,-9.71,-13.15,-13.01,0,*50
1489676479.38,49987,9.88,72942.3,-9.71,-13.29,-13.51,0,*5B
1489676480.63,49988,9.88,72978.0,-9.73,-13.79,-13.93,0,*5D
1489676481.82,49989,9.88,72968.8,-9.71,-13.93,-13.93,0,*5A
1489676483.08,49990,9.88,72956.5,-9.71,-14.51,-14.01,0,*57
1489676484.27,49991,9.88,72942.5,-9.71,-14.65,-13.93,0,*5D
1489676485.55,49992,9.88,72950.8,-9.73,-13.79,-12.83,0,*56
1489676486.75,49993,9.88,72970.8,-9.75,-12.97,-12.25,0,*5C
1489676487.99,49994,9.88,72980.0,-9.75,-12.21,-11.81,0,*5B
1489676489.26,49995,9.88,72982.0,-9.73,-11.81,-11.55,0,*5C
1489676490.54,49996,9.88,72994.5,-9.73,-11.55,-11.29,0,*5D
1489676491.82,49997,9.88,72992.5,-9.73,-11.59,-11.37,0,*5F
1489676493.1,49998,9.88,72976.0,-9.73,-11.51,-11.29,0,*57
1489676494.38,49999,9.88,72988.0,-9.73,-11.55,-11.29,0,*52
1489676495.63,50000,9.88,72996.3,-9.71,-11.51,-11.33,0,*5E
1489676496.88,50001,9.88,73006.0,-9.71,-11.55,-11.37,0,*5F
1489676498.13,50002,9.88,73002.5,-9.71,-11.55,-11.33,0,*58
1489676499.37,50003,9.88,72994.3,-9.71,-11.51,-11.33,0,*5D
1489676500.62,50004,9.88,73010.3,-9.67,-11.55,-11.37,0,*5D
1489676501.85,50005,9.88,73020.8,-9.67,-11.63,-11.45,0,*5C
1489676503.08,50006,9.88,73004.3,-9.67,-11.55,-11.45,0,*5A
1489676504.3,50007,9.88,73010.0,-9.67,-11.51,-11.45,0,*5F
1489676505.55,50008,9.88,73006.8,-9.71,-11.55,-11.55,0,*52
1489676506.82,50009,9.88,72990.3,-9.71,-11.63,-11.63,0,*53
1489676508.07,50010,9.88,73006.0,-9.67,-11.55,-11.63,0,*59
1489676509.33,50011,9.88,73000.5,-9.67,-11.67,-11.63,0,*59
1489676510.58,50012,9.88,73008.8,-9.71,-11.81,-11.67,0,*51
1489676511.83,50013,9.88,72996.3,-9.67,-11.89,-11.67,0,*5F
1489676513.09,50014,9.88,72992.5,-9.67,-11.77,-11.63,0,*5D
1489676514.35,50015,9.88,72994.0,-9.67,-11.67,-11.63,0,*5D
1489676515.6,50016,9.88,72978.0,-9.71,-11.77,-11.67,0,*5C
1489676516.86,50017,9.81,72996.5,-9.71,-11.93,-11.67,0,*57
1489676518.11,50018,9.88,72954.8,-9.71,-11.93,-11.81,0,*50
1489676519.38,50019,9.88,72954.8,-9.71,-11.93,-11.63,0,*5D
1489676520.64,50020,9.88,72940.8,-9.71,-11.67,-11.63,0,*5C
1489676521.89,50021,9.88,72958.5,-9.71,-11.67,-11.63,0,*5D
1489676523.12,50022,9.88,72960.5,-9.71,-11.55,-11.45,0,*5B
1489676524.33,50023,9.88,72952.3,-9.71,-11.45,-11.45,0,*5B
1489676525.58,50024,9.88,72960.0,-9.71,-11.37,-11.37,0,*5C
1489676526.81,50025,9.88,72956.8,-9.71,-11.33,-11.23,0,*5C
1489676528.05,50026,9.88,72968.8,-9.71,-11.37,-11.33,0,*5A
1489676529.3,50027,9.88,72936.5,-9.71,-11.33,-11.33,0,*5F
1489676530.53,50028,9.88,72974.5,-9.71,-11.45,-11.37,0,*55
1489676531.76,50029,9.88,72962.0,-9.71,-11.45,-11.51,0,*54
1489676533.01,50030,9.88,72994.0,-9.73,-11.37,-11.15,0,*5B
1489676534.27,50031,9.88,73002.0,-9.73,-11.29,-11.23,0,*50
1489676535.52,50032,9.88,72962.5,-9.75,-11.51,-11.51,0,*5F
1489676536.8,50033,9.88,72958.0,-9.73,-11.29,-11.37,0,*57
1489676538.05,50034,9.88,72972.8,-9.75,-11.37,-11.37,0,*59
1489676539.26,50035,9.88,72980.3,-9.75,-11.41,-11.41,0,*58
1489676540.52,50036,9.88,72990.8,-9.73,-11.41,-11.37,0,*5C
1489676541.8,50037,9.88,72982.3,-9.73,-11.29,-11.37,0,*53
1489676543.06,50038,9.88,72984.5,-9.73,-11.29,-11.23,0,*59
1489676544.34,50039,9.88,72994.3,-9.73,-11.29,-11.29,0,*52
1489676545.59,50040,9.88,72986.5,-9.75,-11.37,-11.37,0,*5A
1489676546.87,50041,9.88,72994.0,-9.73,-11.37,-11.37,0,*5D
1489676548.1,50042,9.88,72976.5,-9.75,-11.51,-11.41,0,*59
1489676549.38,50043,9.88,73030.0,-9.73,-11.29,-11.37,0,*50
1489676550.65,50044,9.88,73070.8,-9.73,-11.51,-11.51,0,*58
1489676551.93,50045,9.88,72982.3,-9.73,-11.67,-11.67,0,*59
1489676553.21,50046,9.88,72970.8,-9.73,-12.07,-12.11,0,*5D
1489676554.47,50047,9.88,72966.3,-9.75,-12.11,-12.07,0,*5A
1489676555.73,50048,9.88,72972.5,-9.75,-11.97,-12.07,0,*58
1489676556.97,50049,9.88,72964.5,-9.75,-11.81,-11.81,0,*53
1489676558.23,50050,9.81,72926.5,-9.79,-11.77,-11.77,0,*57
1489676559.51,50051,9.88,72950.8,-9.77,-11.63,-11.59,0,*51
1489676560.77,50052,9.88,72958.8,-9.79,-11.63,-11.59,0,*5C
1489676562.05,50053,9.81,72930.5,-9.77,-11.85,-11.73,0,*53
1489676563.31,50054,9.88,72972.0,-9.77,-11.59,-11.45,0,*50
1489676564.53,50055,9.88,72968.8,-9.79,-11.45,-11.41,0,*56
1489676565.74,50056,9.88,72944.5,-9.79,-11.45,-11.45,0,*51
1489676566.98,50057,9.88,72924.3,-9.77,-11.41,-11.45,0,*5A
1489676568.22,50058,9.88,72894.0,-9.77,-11.45,-11.45,0,*51
1489676569.48,50059,9.88,72906.0,-9.79,-11.63,-11.63,0,*5E
1489676570.75,50060,9.88,72938.0,-9.79,-11.63,-11.63,0,*54
1489676572.0,50061,9.88,72958.8,-9.79,-11.55,-11.55,0,*55
1489676573.28,50062,9.88,72974.3,-9.77,-11.33,-11.33,0,*58
1489676574.48,50063,9.88,72984.3,-9.79,-11.19,-11.19,0,*57
1489676575.71,50064,9.81,72962.5,-9.79,-11.19,-11.29,0,*53
1489676576.94,50065,9.88,73042.8,-9.79,-11.07,-11.19,0,*5E
1489676578.23,50066,9.88,73036.0,-9.77,-11.07,-11.07,0,*5C
1489676579.49,50067,9.88,73032.5,-9.79,-11.29,-11.29,0,*53
1489676580.71,50068,9.88,73034.3,-9.79,-11.19,-11.33,0,*54
1489676581.98,50069,9.88,73034.8,-9.77,-11.29,-11.19,0,*50
1489676583.26,50070,9.88,73012.5,-9.77,-11.33,-11.29,0,*50
1489676584.49,50071,9.88,73026.8,-9.79,-11.41,-11.33,0,*51
1489676585.72,50072,9.88,73030.0,-9.79,-11.41,-11.33,0,*52
1489676586.98,50073,9.81,73002.5,-9.77,-11.33,-11.19,0,*50
1489676588.21,50074,9.88,73060.3,-9.77,-11.19,-11.19,0,*5F
1489676589.45,50075,9.88,73028.8,-9.77,-11.41,-11.41,0,*5E
1489676590.73,50076,9.88,73026.5,-9.77,-11.73,-11.59,0,*55
1489676591.99,50077,9.88,73022.5,-9.77,-11.55,-11.45,0,*5D
1489676593.25,50078,9.88,73024.5,-9.77,-11.41,-11.33,0,*56
1489676594.5,50079,9.81,73014.5,-9.77,-11.19,-11.33,0,*5A
1489676595.72,50080,9.88,73000.8,-9.79,-11.19,-11.33,0,*52
1489676597.0,50081,9.88,72992.8,-9.77,-11.33,-11.33,0,*55
1489676598.26,50082,9.88,72928.8,-9.77,-11.29,-11.19,0,*55
1489676599.53,50083,9.81,72958.8,-9.77,-11.45,-11.55,0,*56
1489676600.76,50084,9.88,72972.0,-9.79,-11.33,-11.41,0,*5B
1489676602.0,50085,9.88,72978.8,-9.77,-11.41,-11.41,0,*51
1489676603.23,50086,9.81,73004.8,-9.77,-11.19,-11.19,0,*52
1489676604.44,50087,9.88,72984.8,-9.79,-11.15,-11.15,0,*5D
1489676605.66,50088,9.88,73016.0,-9.79,-11.19,-11.29,0,*51
1489676606.91,50089,9.88,72980.5,-9.77,-11.41,-11.41,0,*5D
1489676608.15,50090,9.88,73002.5,-9.77,-11.41,-11.41,0,*55
1489676609.36,50091,9.88,72974.5,-9.79,-11.41,-11.41,0,*5A
1489676610.6,50092,9.81,72982.3,-9.77,-11.41,-11.41,0,*57
1489676611.86,50093,9.81,72976.0,-9.77,-11.41,-11.33,0,*53
1489676613.07,50094,9.81,72998.8,-9.79,-11.41,-11.41,0,*5F
1489676614.3,50095,9.81,72966.0,-9.79,-11.29,-11.19,0,*5D
1489676615.54,50096,9.81,72986.8,-9.77,-11.41,-11.41,0,*53
1489676616.78,50097,9.81,73022.8,-9.77,-11.41,-11.41,0,*52
1489676618.01,50098,9.81,73004.5,-9.79,-11.63,-11.45,0,*57
1489676619.28,50099,9.81,73032.8,-9.77,-11.59,-11.45,0,*51
1489676620.57,50100,9.81,73022.3,-9.77,-11.77,-11.63,0,*58
1489676621.82,50101,9.81,73028.3,-9.77,-12.03,-11.97,0,*52
1489676623.11,50102,9.88,73012.5,-9.77,-12.15,-11.89,0,*59
1489676624.37,50103,9.88,73004.0,-9.77,-12.25,-11.77,0,*5A
1489676625.66,50104,9.88,73000.0,-9.77,-11.89,-11.59,0,*54
1489676626.92,50105,9.88,73010.3,-9.77,-11.63,-11.45,0,*5C
1489676628.15,50106,9.81,73000.8,-9.75,-11.41,-11.37,0,*58
1489676629.4,50107,9.81,73024.8,-9.75,-11.51,-11.37,0,*58
1489676630.63,50108,9.88,73042.5,-9.75,-11.51,-11.41,0,*56
1489676631.88,50109,9.81,73010.0,-9.75,-11.73,-11.73,0,*56
1489676633.17,50110,9.88,72968.3,-9.77,-11.59,-11.59,0,*5C
1489676634.38,50111,9.88,72924.5,-9.75,-11.41,-11.41,0,*5F
1489676635.63,50112,9.88,73022.8,-9.75,-11.59,-11.51,0,*54
1489676636.86,50113,9.88,73042.8,-9.79,-11.55,-11.45,0,*50
1489676638.11,50114,9.81,73016.8,-9.77,-11.45,-11.45,0,*58
1489676639.37,50115,9.88,73016.0,-9.77,-11.45,-11.29,0,*53
1489676640.6,50116,9.88,73058.8,-9.75,-11.37,-11.23,0,*5D
1489676641.83,50117,9.88,73056.3,-9.75,-11.29,-11.23,0,*53
1489676643.11,50118,9.88,73046.8,-9.73,-11.55,-11.51,0,*54
1489676644.37,50119,9.88,73062.5,-9.75,-11.59,-11.55,0,*5B
1489676645.62,50120,9.88,73030.0,-9.75,-11.85,-11.81,0,*59
1489676646.85,50121,9.88,73056.8,-9.75,-12.25,-12.11,0,*5B
1489676648.08,50122,9.88,73048.0,-9.75,-12.39,-12.11,0,*55
1489676649.34,50123,9.88,73042.3,-9.75,-12.35,-11.93,0,*51
1489676650.57,50124,9.88,73042.8,-9.75,-12.25,-11.73,0,*59
1489676651.83,50125,9.88,73020.5,-9.75,-11.93,-11.59,0,*5E
1489676653.09,50126,9.81,73014.5,-9.75,-11.59,-11.51,0,*53
1489676654.35,50127,9.88,72992.5,-9.75,-11.59,-11.55,0,*56
1489676655.62,50128,9.88,73000.5,-9.73,-11.55,-11.59,0,*5F
1489676656.88,50129,9.81,72992.5,-9.75,-11.59,-11.51,0,*5C
1489676658.16,50130,9.88,73012.5,-9.73,-11.85,-11.73,0,*53
1489676659.41,50131,9.81,73028.8,-9.75,-11.67,-11.55,0,*5C
1489676660.63,50132,9.88,73042.3,-9.75,-11.41,-11.41,0,*5E
1489676661.9,50133,9.88,73020.0,-9.73,-11.51,-11.37,0,*59
1489676663.13,50134,9.88,72978.0,-9.75,-11.41,-11.37,0,*59
1489676664.33,50135,9.88,72970.8,-9.75,-11.11,-11.11,0,*59
1489676665.54,50136,9.88,72974.5,-9.75,-11.01,-11.11,0,*5B
1489676666.75,50137,9.81,72964.0,-9.75,-11.01,-11.11,0,*5A
1489676667.95,50138,9.88,72988.3,-9.75,-11.23,-11.23,0,*54
1489676669.16,50139,9.88,72988.5,-9.75,-11.15,-11.11,0,*51
1489676670.36,50140,9.88,72982.8,-9.75,-11.11,-11.11,0,*5B
1489676671.59,50141,9.81,72958.8,-9.75,-11.29,-11.23,0,*50
1489676672.82,50142,9.88,72968.3,-9.75,-11.37,-11.41,0,*58
1489676674.03,50143,9.88,72970.8,-9.75,-11.41,-11.41,0,*58
1489676675.26,50144,9.88,73016.0,-9.75,-11.37,-11.41,0,*5E
1489676676.5,50145,9.81,73020.0,-9.75,-11.29,-11.41,0,*50
1489676677.75,50146,9.88,73018.5,-9.75,-11.37,-11.37,0,*5D
1489676678.99,50147,9.81,73008.5,-9.75,-11.55,-11.41,0,*59
1489676680.26,50148,9.81,73012.3,-9.73,-11.59,-11.51,0,*5D
1489676681.52,50149,9.81,73018.0,-9.73,-11.51,-11.41,0,*55
1489676682.78,50150,9.81,73046.8,-9.73,-11.29,-11.15,0,*53
1489676683.98,50151,9.81,72996.0,-9.75,-11.23,-11.11,0,*5A
1489676685.19,50152,9.81,73000.5,-9.75,-11.01,-11.01,0,*58
1489676686.41,50153,9.88,73020.5,-9.75,-11.01,-10.97,0,*57
1489676687.66,50154,9.81,72914.8,-9.75,-11.37,-11.37,0,*5E
1489676688.91,50155,9.81,72894.5,-9.75,-11.55,-11.59,0,*53
1489676690.19,50156,9.88,72966.3,-9.73,-11.81,-11.85,0,*5E
1489676691.47,50157,9.88,72962.0,-9.73,-11.59,-11.73,0,*53
1489676692.74,50158,9.81,72970.5,-9.73,-11.67,-11.81,0,*5C
1489676694.01,50159,9.88,73014.3,-9.73,-11.73,-11.81,0,*58
1489676695.27,50160,9.81,73034.3,-9.75,-11.97,-11.97,0,*59
1489676696.55,50161,9.88,72968.3,-9.73,-12.35,-12.35,0,*5E
1489676697.79,50162,9.88,72962.8,-9.75,-13.07,-12.71,0,*5B
1489676699.0,50163,9.88,72976.3,-9.75,-13.43,-13.19,0,*55
1489676700.22,50164,9.88,72972.5,-9.73,-13.65,-13.55,0,*58
1489676701.45,50165,9.81,72966.8,-9.73,-13.69,-13.55,0,*55
1489676702.73,50166,9.81,72920.5,-9.73,-13.79,-14.05,0,*55
1489676703.93,50167,9.88,72964.3,-9.71,-14.89,-14.37,0,*5F
1489676705.15,50168,9.81,72980.8,-9.71,-15.89,-13.93,0,*58
1489676706.41,50169,9.81,72974.3,-9.73,-16.41,-13.37,0,*52
1489676707.66,50170,9.81,72960.8,-9.73,-15.57,-12.39,0,*51
1489676708.92,50171,9.81,72978.8,-9.73,-13.69,-11.55,0,*52
1489676710.15,50172,9.88,72984.5,-9.73,-12.25,-11.15,0,*5C
1489676711.4,50173,9.88,73008.8,-9.73,-11.73,-11.01,0,*58
1489676712.65,50174,9.81,73000.8,-9.71,-11.07,-10.71,0,*58
1489676713.86,50175,9.81,72990.8,-9.71,-10.93,-10.57,0,*51
1489676715.1,50176,9.81,72982.3,-9.71,-10.97,-10.67,0,*55
1489676716.32,50177,9.81,73002.5,-9.71,-11.07,-10.85,0,*50
1489676717.52,50178,9.88,73016.5,-9.71,-10.97,-10.85,0,*57
1489676718.75,50179,9.81,72982.0,-9.67,-10.85,-10.79,0,*51
1489676719.99,50180,9.88,72994.8,-9.67,-11.07,-10.97,0,*5C
1489676721.19,50181,9.81,72996.5,-9.71,-10.93,-11.11,0,*59
1489676722.42,50182,9.88,73000.0,-9.67,-11.07,-11.23,0,*50
1489676723.67,50183,9.81,72996.3,-9.71,-11.07,-11.55,0,*57
1489676724.92,50184,9.81,73002.8,-9.71,-11.63,-12.65,0,*52
1489676726.14,50185,9.81,72942.5,-9.71,-12.61,-13.73,0,*54
1489676727.39,50186,9.81,72988.3,-9.67,-13.61,-14.05,0,*57
1489676728.61,50187,9.81,73010.3,-9.67,-13.61,-13.93,0,*5E
1489676729.84,50188,9.81,72978.0,-9.67,-13.79,-14.65,0,*56
1489676731.05,50189,9.88,72986.0,-9.67,-13.93,-14.89,0,*51
1489676732.3,50190,9.88,72998.8,-9.65,-14.43,-15.99,0,*51
1489676733.53,50191,9.88,72992.3,-9.71,-16.09,-17.31,0,*59
1489676734.75,50192,9.81,73000.8,-9.67,-17.69,-16.27,0,*5C
1489676735.95,50193,9.81,72938.5,-9.67,-15.49,-13.51,0,*59
1489676737.18,50194,9.81,72942.0,-9.67,-13.61,-12.93,0,*5D
1489676738.42,50195,9.81,72912.0,-9.67,-13.37,-13.19,0,*5C
1489676739.64,50196,9.81,72910.5,-9.67,-13.01,-13.07,0,*55
1489676740.89,50197,9.81,72944.3,-9.67,-12.65,-13.33,0,*50
1489676742.09,50198,9.81,72924.3,-9.71,-12.93,-13.93,0,*5B
1489676743.31,50199,9.81,72948.3,-9.67,-13.19,-13.87,0,*5B
1489676744.54,50200,9.81,72946.8,-9.67,-13.07,-13.33,0,*58
1489676745.76,50201,9.81,72886.0,-9.67,-13.29,-13.15,0,*51
1489676747.01,50202,9.81,72790.3,-9.67,-13.29,-13.01,0,*57
1489676748.23,50203,9.81,72892.0,-9.71,-13.37,-13.07,0,*58
1489676749.46,50204,9.81,72848.0,-9.71,-13.61,-13.51,0,*5F
1489676750.7,50205,9.81,72880.3,-9.67,-13.51,-15.35,0,*5E
1489676751.93,50206,9.81,72988.0,-9.67,-14.51,-16.79,0,*51
1489676753.18,50207,9.88,73014.3,-9.67,-17.17,-18.89,0,*50
1489676754.39,50208,9.81,72946.5,-9.67,-18.99,-17.87,0,*57
1489676755.58,50209,9.81,72956.5,-9.67,-17.69,-17.31,0,*5B
1489676756.82,50210,9.81,72906.5,-9.67,-16.55,-17.41,0,*5A
1489676758.1,50211,9.81,72880.8,-9.65,-16.65,-17.07,0,*58
1489676759.31,50212,9.81,72982.3,-9.63,-16.59,-16.37,0,*50
1489676760.54,50213,9.81,72966.0,-9.63,-16.59,-16.17,0,*53
1489676761.77,50214,9.88,72956.0,-9.65,-16.03,-15.15,0,*5C
1489676763.0,50215,9.81,72948.3,-9.63,-15.29,-14.97,0,*5B
1489676764.25,50216,9.81,72916.3,-9.65,-15.43,-15.15,0,*59
1489676765.49,50217,9.81,72858.3,-9.63,-15.85,-15.49,0,*5D
1489676766.74,50218,9.81,72980.0,-9.63,-16.31,-16.09,0,*59
1489676768.0,50219,9.88,72994.8,-9.63,-17.07,-16.23,0,*54
1489676769.25,50220,9.81,73010.8,-9.63,-16.17,-15.21,0,*5F
1489676770.48,50221,9.88,73014.0,-9.63,-15.71,-14.55,0,*5F
1489676771.73,50222,9.81,73022.3,-9.63,-16.23,-14.83,0,*53
1489676772.93,50223,9.88,73002.3,-9.63,-15.63,-13.73,0,*5D
1489676774.16,50224,9.81,73038.5,-9.63,-14.19,-12.75,0,*51
1489676775.4,50225,9.81,73008.0,-9.61,-13.07,-12.21,0,*5B
1489676776.66,50226,9.81,72972.8,-9.61,-12.43,-11.93,0,*53
1489676777.93,50227,9.81,73008.3,-9.65,-11.77,-11.33,0,*58
1489676779.18,50228,9.81,73004.5,-9.63,-11.59,-11.33,0,*5D
1489676780.44,50229,9.81,73010.5,-9.61,-11.59,-11.41,0,*5B
1489676781.72,50230,9.81,72976.8,-9.61,-11.73,-11.67,0,*5F
1489676783.0,50231,9.88,72988.8,-9.61,-11.85,-11.73,0,*52
1489676784.25,50232,9.81,72974.5,-9.59,-11.97,-11.67,0,*5C
1489676785.54,50233,9.88,72972.8,-9.61,-12.11,-11.67,0,*5B
1489676786.79,50234,9.81,73016.0,-9.63,-12.15,-11.63,0,*5E
1489676788.08,50235,9.81,73036.3,-9.61,-11.67,-11.29,0,*55
1489676789.31,50236,9.88,73010.0,-9.61,-11.41,-11.11,0,*59
1489676790.52,50237,9.81,73014.8,-9.59,-11.23,-11.01,0,*56
1489676791.72,50238,9.88,73016.8,-9.59,-11.11,-11.15,0,*5D
1489676792.97,50239,9.81,73042.3,-9.61,-11.11,-11.37,0,*57
1489676794.24,50240,9.81,73026.3,-9.61,-11.41,-11.55,0,*58
1489676795.49,50241,9.81,72980.8,-9.59,-11.55,-11.55,0,*57
1489676796.73,50242,9.81,72952.5,-9.59,-11.55,-11.41,0,*51
1489676797.98,50243,9.81,72966.5,-9.59,-11.55,-11.29,0,*5E
1489676799.23,50244,9.81,72974.8,-9.57,-11.51,-11.23,0,*59
1489676800.48,50245,9.81,72990.3,-9.57,-11.51,-11.23,0,*58
1489676801.69,50246,9.81,73052.8,-9.55,-11.23,-10.97,0,*52
1489676802.92,50247,9.81,72948.0,-9.57,-11.23,-11.19,0,*56
1489676804.12,50248,9.81,72936.0,-9.55,-11.19,-11.19,0,*52
1489676805.37,50249,9.81,72954.0,-9.57,-11.23,-11.33,0,*50
1489676806.62,50250,9.81,73020.3,-9.55,-11.37,-11.51,0,*5B
1489676807.91,50251,9.81,73018.5,-9.57,-11.55,-11.63,0,*5D
1489676809.16,50252,9.81,72982.0,-9.57,-12.03,-12.15,0,*5C
1489676810.43,50253,9.81,72980.3,-9.57,-12.35,-12.65,0,*5F
1489676811.66,50254,9.81,73024.0,-9.57,-13.15,-13.19,0,*51
1489676812.89,50255,9.81,73014.8,-9.55,-13.65,-13.33,0,*5D
1489676814.1,50256,9.81,73014.5,-9.59,-13.43,-12.93,0,*5D
1489676815.32,50257,9.81,73032.5,-9.59,-13.07,-12.65,0,*55
1489676816.55,50258,9.81,73040.0,-9.59,-12.71,-12.39,0,*53
1489676817.76,50259,9.81,73036.5,-9.59,-12.25,-12.21,0,*5A
1489676819.01,50260,9.81,72964.0,-9.59,-11.81,-11.73,0,*59
1489676820.27,50261,9.88,72954.0,-9.59,-11.97,-12.11,0,*58
1489676821.5,50262,9.81,72966.3,-9.59,-12.07,-12.25,0,*56
1489676822.76,50263,9.81,72994.0,-9.61,-12.25,-12.57,0,*59
1489676824.01,50264,9.81,72978.8,-9.61,-12.65,-12.93,0,*52
1489676825.3,50265,9.81,72990.3,-9.61,-12.53,-12.53,0,*5A
1489676826.53,50266,9.81,72978.0,-9.61,-12.43,-12.29,0,*55
1489676827.79,50267,9.88,72996.3,-9.59,-12.53,-12.07,0,*52
1489676829.03,50268,9.88,73016.0,-9.59,-12.21,-11.67,0,*5D
1489676830.31,50269,9.88,72998.5,-9.61,-11.93,-11.37,0,*58
1489676831.57,50270,9.88,73026.3,-9.61,-11.67,-11.15,0,*5B
1489676832.8,50271,9.88,72990.5,-9.59,-11.37,-11.11,0,*50
1489676834.04,50272,9.81,73000.0,-9.59,-11.29,-10.97,0,*53
1489676835.25,50273,9.88,73026.0,-9.59,-11.23,-10.97,0,*58
1489676836.46,50274,9.81,73014.8,-9.59,-11.01,-10.89,0,*50
1489676837.67,50275,9.81,73024.0,-9.59,-10.97,-10.89,0,*5F
1489676838.88,50276,9.81,73022.5,-9.59,-10.97,-10.89,0,*5C
1489676840.09,50277,9.88,72992.8,-9.59,-11.01,-10.97,0,*5C
1489676841.34,50278,9.81,72984.5,-9.57,-11.07,-11.11,0,*54
1489676842.57,50279,9.81,72982.3,-9.57,-11.19,-11.19,0,*52
1489676843.79,50280,9.81,72990.0,-9.57,-11.23,-11.23,0,*54
1489676845.05,50281,9.81,72988.0,-9.57,-11.33,-11.23,0,*54
1489676846.3,50282,9.81,72982.8,-9.57,-11.23,-11.33,0,*57
1489676847.52,50283,9.81,73010.5,-9.55,-11.41,-11.33,0,*50
1489676848.75,50284,9.81,72968.3,-9.55,-11.33,-11.23,0,*53
1489676849.98,50285,9.81,72958.3,-9.55,-11.33,-11.19,0,*5B
1489676851.19,50286,9.81,72950.8,-9.55,-11.41,-11.23,0,*54
1489676852.42,50287,9.81,72960.3,-9.57,-11.23,-11.19,0,*5A
1489676853.62,50288,9.81,72978.3,-9.55,-11.19,-10.93,0,*5D
1489676854.86,50289,9.81,72968.8,-9.55,-10.97,-10.79,0,*5F
1489676856.12,50290,9.81,72982.0,-9.57,-10.97,-10.67,0,*5A
1489676857.38,50291,9.81,72986.0,-9.53,-10.79,-10.53,0,*58
1489676858.64,50292,9.81,72986.3,-9.53,-10.67,-10.49,0,*5F
1489676859.93,50293,9.81,72998.5,-9.53,-10.75,-10.63,0,*55
1489676861.22,50294,9.81,73004.3,-9.53,-10.67,-10.63,0,*51
1489676862.5,50295,9.88,72990.3,-9.53,-10.75,-10.63,0,*53
1489676863.76,50296,9.88,72982.3,-9.53,-10.89,-10.75,0,*54
1489676864.99,50297,9.81,72984.5,-9.51,-10.89,-10.75,0,*57
1489676866.22,50298,9.88,72970.0,-9.51,-10.93,-10.75,0,*53
1489676867.46,50299,9.81,72970.5,-9.53,-11.01,-10.93,0,*52
1489676868.72,50300,9.81,72976.3,-9.53,-11.07,-10.93,0,*55
1489676869.94,50301,9.81,72972.5,-9.51,-11.07,-11.01,0,*5C
1489676871.15,50302,9.81,72970.5,-9.51,-11.15,-11.01,0,*5C
1489676872.35,50303,9.81,72956.8,-9.51,-11.01,-11.01,0,*58
1489676873.58,50304,9.81,72978.0,-9.51,-11.07,-10.93,0,*53
1489676874.78,50305,9.81,72954.5,-9.51,-11.15,-11.15,0,*5E
1489676875.98,50306,9.81,72962.5,-9.51,-11.15,-11.15,0,*5D
1489676877.21,50307,9.81,72972.8,-9.51,-11.07,-11.01,0,*5A
1489676878.42,50308,9.88,72976.5,-9.51,-10.93,-10.89,0,*58
1489676879.62,50309,9.81,72978.5,-9.51,-10.93,-10.89,0,*59
1489676880.85,50310,9.88,72974.0,-9.49,-10.89,-10.89,0,*53
1489676882.08,50311,9.81,72976.0,-9.45,-10.85,-10.85,0,*5E
1489676883.31,50312,9.88,73000.0,-9.45,-10.85,-10.85,0,*5D
1489676884.61,50313,9.81,72988.0,-9.45,-10.75,-10.75,0,*5C
1489676885.86,50314,9.81,72974.0,-9.49,-10.85,-10.75,0,*58
1489676887.09,50315,9.81,72978.3,-9.49,-10.85,-10.89,0,*5A
1489676888.34,50316,9.81,72982.0,-9.49,-10.75,-10.89,0,*56
1489676889.58,50317,9.81,72974.8,-9.45,-10.97,-11.11,0,*57
1489676890.83,50318,9.81,72974.0,-9.45,-10.85,-10.97,0,*54
1489676892.09,50319,9.81,72978.3,-9.45,-10.75,-10.89,0,*55
1489676893.33,50320,9.81,72980.8,-9.49,-10.97,-11.01,0,*5E
1489676894.57,50321,9.81,72984.8,-9.45,-10.89,-11.01,0,*5C
1489676895.81,50322,9.81,72988.5,-9.45,-11.01,-11.11,0,*5F
1489676897.06,50323,9.81,72982.5,-9.45,-11.01,-10.97,0,*51
1489676898.31,50324,9.81,72982.3,-9.45,-10.97,-10.97,0,*58
1489676899.54,50325,9.81,72996.0,-9.49,-10.97,-11.11,0,*5A
1489676900.78,50326,9.81,72998.8,-9.45,-11.11,-11.11,0,*5A
1489676902.06,50327,9.81,72958.5,-9.43,-11.29,-11.29,0,*5D
1489676903.27,50328,9.81,72948.3,-9.43,-11.11,-11.11,0,*52
1489676904.51,50329,9.81,72934.8,-9.45,-11.23,-11.15,0,*50